Weather History for KCMI - January, 2013

Change the Weather History Date:

Sunday, January 6, 2013

  Actual Average Record
Temperature  
Mean Temperature 26 °F 25 °F  
Max Temperature 35 °F 33 °F 61 °F (2008)
Min Temperature 16 °F 18 °F -13 °F (2014)
Degree Days  
Heating Degree Days 39 40  
Month to date heating degree days 267 236  
Since 1 July heating degree days 2320 2517  
Cooling Degree Days 0 0  
Month to date cooling degree days 0 0  
Year to date cooling degree days 0 0  
Moisture  
Dew Point 22 °F    
Average Humidity 86    
Maximum Humidity 100    
Minimum Humidity 72    
Precipitation  
Precipitation 0.00 in 0.08 in 0.27 in (1950)
Month to date precipitation T 0.53  
Year to date precipitation T 0.53  
Sea Level Pressure  
Sea Level Pressure 30.21 in    
Wind  
Wind Speed 14 mph (West)    
Max Wind Speed 30 mph    
Max Gust Speed 35 mph    
Visibility 8 miles    
Events      
T = Trace of Precipitation, MM = Missing Value Source: NWS Daily Summary

Daily Weather History Graph

Daily Weather History Graph

Search for Another Location

Airport or City:

Trip Planner

Search our weather history database for the weather conditions in past years. The results will help you decide how hot, cold, wet, or windy it might be!

Date:

Astronomy

Jan. 06, 2013 Rise Set
Actual Time 7:15 AM CST 4:43 PM CST
Civil Twilight 6:45 AM CST 5:13 PM CST
Nautical Twilight 6:11 AM CST 5:47 PM CST
Astronomical Twilight 5:38 AM CST 6:20 PM CST
Moon 1:29 AM CST (1/6) 12:10 PM CST (1/6)
Length of Visible Light 10h 28m
Length of Day
9h 28m
Waning Crescent, 33% of the Moon is Illuminated
Jan 6
Waning Crescent
Jan 11
New
Jan 18
First Quarter
Jan 26
Full
Feb 3
Last Quarter

Hourly Weather History & Observations

Time (CST) Temp. Windchill Dew Point Humidity Pressure Visibility Wind Dir Wind Speed Gust Speed Precip Events Conditions
12:53 AM 35.1 °F 25.5 °F 30.0 °F 82% 30.04 in 10.0 mi SSW 15.0 mph - N/A   Overcast
1:53 AM 34.0 °F 24.6 °F 30.0 °F 85% 30.04 in 10.0 mi SSW 13.8 mph - N/A   Overcast
2:53 AM 35.1 °F 25.9 °F 30.0 °F 82% 30.04 in 10.0 mi SSW 13.8 mph - N/A   Overcast
4:25 AM 35.6 °F 26.6 °F 30.2 °F 81% 30.00 in 10.0 mi SW 13.8 mph - N/A   Overcast
4:53 AM 35.1 °F 25.9 °F 30.9 °F 85% 30.02 in 10.0 mi WSW 13.8 mph - N/A   Overcast
5:53 AM 30.0 °F 16.9 °F 25.0 °F 82% 30.07 in 10.0 mi WNW 21.9 mph 31.1 mph N/A   Overcast
6:53 AM 28.9 °F 15.1 °F 23.0 °F 78% 30.09 in 10.0 mi West 23.0 mph 31.1 mph N/A   Overcast
7:53 AM 28.9 °F 17.7 °F 24.1 °F 82% 30.10 in 8.0 mi West 15.0 mph - N/A   Overcast
8:53 AM 28.0 °F 14.3 °F 23.0 °F 81% 30.13 in 5.0 mi WNW 21.9 mph - N/A   Haze
10:53 AM 26.1 °F 11.6 °F 19.0 °F 75% 30.19 in 5.0 mi WNW 21.9 mph - N/A   Haze
11:26 AM 26.6 °F 13.4 °F 19.4 °F 74% 30.16 in 5.0 mi WNW 18.4 mph 27.6 mph N/A   Haze
11:53 AM 27.0 °F 13.2 °F 19.9 °F 75% 30.19 in 6.0 mi WNW 20.7 mph - N/A   Haze
12:53 PM 28.9 °F 15.1 °F 21.9 °F 75% 30.19 in 7.0 mi WNW 23.0 mph 26.5 mph N/A   Scattered Clouds
1:53 PM 30.0 °F 17.9 °F 23.0 °F 75% 30.22 in 8.0 mi WNW 18.4 mph - N/A   Scattered Clouds
2:53 PM 28.9 °F 16.9 °F 23.0 °F 78% 30.25 in 9.0 mi WNW 17.3 mph - N/A   Scattered Clouds
3:53 PM 30.0 °F 18.7 °F 23.0 °F 75% 30.29 in 10.0 mi WNW 16.1 mph - N/A   Clear
4:53 PM 27.0 °F 16.7 °F 23.0 °F 85% 30.31 in 10.0 mi WNW 11.5 mph - N/A   Clear
5:53 PM 24.1 °F 15.2 °F 19.9 °F 84% 30.33 in 10.0 mi WNW 8.1 mph - N/A   Clear
6:53 PM 24.1 °F 16.0 °F 21.0 °F 88% 30.37 in 9.0 mi West 6.9 mph - N/A   Clear
7:53 PM 19.9 °F 11.1 °F 18.0 °F 92% 30.38 in 7.0 mi WSW 6.9 mph - N/A   Clear
8:53 PM 19.9 °F 13.4 °F 18.0 °F 92% 30.39 in 7.0 mi WSW 4.6 mph - N/A   Clear
9:53 PM 16.0 °F 10.4 °F 15.1 °F 96% 30.40 in 6.0 mi SSW 3.5 mph - N/A   Clear
10:53 PM 16.0 °F - 14.0 °F 92% 30.39 in 6.0 mi Calm Calm - N/A   Clear
11:53 PM 17.1 °F 10.0 °F 15.1 °F 92% 30.40 in 6.0 mi SSW 4.6 mph - N/A   Clear